Weather in Nevdolsk

Russia / Bryansk Oblast     52°18′09″N   34°17′00″E
temp.,
°C
wind,
m/s
gust,
m/s
humid.,
%
clouds,
%
prec.,
mm/h
press.,
hPa
HPBL,
m
8 may, sat
sat800:00+9sse71486100 1.8 1010631
03:00+9sse61395100 5.6 1007661
06:00+9sse61392100 1.5 1005607
09:00+10s71396100 3.7 1003765
12:00+9nnw4795100 4.6 1003380
15:00+10w4793100 5.1 1004502
18:00+6wnw81294100 1.0 1006983
21:00+5wnw61396100 4.3 10101174
9 may, sun
sun900:00+5wnw71394100 2.4 1012877
03:00+3wnw61489100 2.5 1014599
06:00+2wnw514885 0.0 1016497
09:00+6nw710695 0.0 10191093
12:00+10nw71051100 0.1 10202164
15:00+11nnw7945100 0.1 10212395
18:00+10nw585321 0.0 10231703
21:00+5nw34724 0.0 102548
10 may, mon
mon1000:00+4nw33795 0.0 102743
03:00+3nnw33825 0.0 102838
06:00+3n23827 0.0 103060
09:00+10nne23565 0.0 1030415
12:00+14nne34405 0.0 10301545
15:00+15ne45395 0.0 10281786
18:00+14ne46540 0.0 1028672
21:00+8ene33760 0.0 102932
11 may, tue
tue1100:00+6ne37820 0.0 1029110
03:00+5nne410820 0.0 1028169
06:00+5nne513780 0.0 1028303
09:00+11ne712571 0.0 1026654
12:00+15ne710545 0.0 1025923
15:00+17ene796187 0.0 10231113
18:00+13e6127999 0.0 1025907
21:00+11e49860 0.0 1024335
12 may, wed
wed1200:00+8ene349396 0.0 102461
03:00+9ese3693100 0.4 1022330
06:00+8e2396100 1.4 1021156
09:00+11ese577961 1.7 1022765
12:00+14ese796385 0.3 10201485
15:00+14ese6964100 0.8 10191352
18:00+12sse61082100 0.8 1020787
21:00+9e2692100 0.9 1019256